sat.trackr.live / text

‹ back to catalog

STARLINK-35123

NORAD 65634 · 2025-210N

PAYLOAD ACTIVE UNKNOWN

§ Identity

Operator
Country
US
Launch date
2025-09-18
Launch site
AFETR
Launch vehicle
Mass (kg)
RCS (m²)

Purposes: comms

External: N2YO · Heavens-Above · Gunter

§ Orbital elements

Epoch: 2026-09-19T23:48:00.995616Z

Period
94.01 min
Inclination
53.1573°
Eccentricity
0.0001086
Mean motion
15.31714433 rev/d
Perigee alt
470.0 km
Apogee alt
471.4 km
Semi-major
6,848.8 km
B*
2.5080e-4
RAAN
123.5686°
Arg perigee
86.0888°
Mean anomaly
274.0237°
Rev number
5,749

§ Raw data

STARLINK-351231 65634U 25210N   26262.99167819  .00007429  00000+0  25080-3 0  99912 65634  53.1573 123.5686 0001086  86.0888 274.0237 15.31714433 57496

JSON: /api/v1/satellites/65634 · /tle

For live sub-satellite position, see the globe view (requires WebGL).

§ Visibility from observer

Set your observer location to see the next 7 days of passes ≥ 10°. The values pass through the URL so the page stays shareable.

No JS? Fill the form by hand. The geolocation button needs JavaScript.